Zurück zum Katalog

AC1-002

AktivWissenschaftSSO
NORAD 66745·PAYLOAD·🇬🇧 United Kingdom

Gestartet Nov 28, 2025 von Vandenberg Space Force Base

Loading…

Nächste Überflüge (nächste 24 Stunden)

TLE

AktuellSource: Space-Track

Epoche: Sep 14, 2026, 04:21 UTC

1 66745U 25276CH  26257.18139457  .00001676  00000-0  83883-4 0  9994
2 66745  97.4121 328.8250 0003458  61.3113 298.8469 15.18757506 43915

Verfolge AC1-002 in Echtzeit mit AllMySat

Download on the App Store